Location: Newark
(49.8348°N, 24.0280°E)
Time: 19:36:21
(UTC+00:00)

SR - All Passes

Search period start: 22 January 2020 00:00
Search period end: 01 February 2020 00:00
Orbit: 574 x 882 km, 66.7° (Epoch: 22 January)

Date Brightness Start Highest point End Pass type
(mag) Time Alt. Az. Time Alt. Az. Time Alt. Az.
22 Jan - 00:02:07 10° W 00:06:51 24° NNW 00:11:33 10° NNE visible
22 Jan - 01:47:51 10° NW 01:51:07 15° N 01:54:19 10° NNE visible
22 Jan - 03:31:15 10° NNW 03:35:30 20° NNE 03:39:34 10° ENE visible
22 Jan - 05:13:15 10° NNW 05:18:54 55° NE 05:24:07 10° SE visible
22 Jan - 06:55:52 10° NW 07:00:45 31° WSW 07:05:17 10° S daylight
22 Jan - 19:49:34 10° SE 19:52:47 15° ESE 19:56:02 10° ENE night (unlit)
22 Jan - 21:28:08 10° SSW 21:33:58 74° ESE 21:39:55 10° NE night (unlit)
22 Jan - 23:11:22 10° W 23:16:39 32° NW 23:21:56 10° NNE night (unlit)
23 Jan - 00:57:01 10° NW 01:00:36 16° NNW 01:04:09 10° NNE visible
23 Jan - 02:41:25 10° NNW 02:45:05 17° NNE 02:48:38 10° NE visible
23 Jan - 04:23:37 10° NNW 04:28:56 36° NE 04:33:52 10° ESE visible
23 Jan - 06:05:49 10° NW 06:11:21 56° WSW 06:16:24 10° SSE daylight
23 Jan - 20:38:55 10° S 20:44:26 44° ESE 20:50:02 10° NE night (unlit)
23 Jan - 22:20:55 10° WSW 22:26:36 47° NW 22:32:19 10° NNE night (unlit)
24 Jan - 00:06:01 10° WNW 00:10:10 19° NNW 00:14:17 10° NNE visible
24 Jan - 01:51:19 10° NNW 01:54:36 15° N 01:57:48 10° NE visible
24 Jan - 03:33:59 10° NNW 03:38:46 26° NNE 03:43:18 10° E visible
24 Jan - 05:16:00 10° NW 05:21:44 86° NE 05:26:58 10° SE visible
24 Jan - 06:59:23 10° WNW 07:03:03 18° WSW 07:06:32 10° SSW daylight
24 Jan - 19:50:21 10° SSE 19:55:03 26° ESE 19:59:51 10° NE night (unlit)
24 Jan - 21:30:49 10° SW 21:36:44 73° NW 21:42:41 10° NE night (unlit)
24 Jan - 23:15:04 10° W 23:19:51 24° NNW 23:24:35 10° NNE night (unlit)
25 Jan - 01:00:49 10° NW 01:04:05 15° N 01:07:17 10° NNE visible
25 Jan - 02:44:18 10° NNW 02:48:28 20° NNE 02:52:28 10° ENE visible
25 Jan - 04:26:19 10° NNW 04:31:55 53° NE 04:37:05 10° ESE visible
25 Jan - 06:08:53 10° NW 06:13:49 33° WSW 06:18:23 10° S daylight
25 Jan - 19:02:52 10° SE 19:05:53 14° ESE 19:08:54 10° ENE night (unlit)
25 Jan - 20:41:11 10° SSW 20:47:01 71° ESE 20:52:57 10° NE night (unlit)
25 Jan - 22:24:19 10° W 22:29:39 33° NW 22:34:58 10° NNE night (unlit)
26 Jan - 00:09:57 10° NW 00:13:34 16° NNW 00:17:09 10° NNE visible
26 Jan - 01:54:28 10° NNW 01:58:03 16° NNE 02:01:32 10° NE visible
26 Jan - 03:36:41 10° NNW 03:41:55 35° NE 03:46:48 10° ESE visible
26 Jan - 05:18:52 10° NW 05:24:23 59° WSW 05:29:27 10° SSE visible
26 Jan - 19:52:01 10° S 19:57:29 42° ESE 20:03:02 10° NE night (unlit)
26 Jan - 21:33:54 10° WSW 21:39:38 49° NW 21:45:22 10° NNE night (unlit)
26 Jan - 23:18:56 10° WNW 23:23:09 19° NNW 23:27:18 10° NNE night (unlit)
27 Jan - 01:04:19 10° NNW 01:07:34 15° N 01:10:43 10° NE visible
27 Jan - 02:47:04 10° NNW 02:51:46 25° NNE 02:56:12 10° E visible
27 Jan - 04:29:04 10° NW 04:34:46 82° NE 04:39:58 10° SE visible
27 Jan - 06:12:21 10° WNW 06:16:07 19° WSW 06:19:42 10° SSW daylight
27 Jan - 19:03:31 10° SSE 19:08:09 25° ESE 19:12:49 10° ENE night (unlit)
27 Jan - 20:43:51 10° SW 20:49:46 76° NW 20:55:43 10° NE night (unlit)
27 Jan - 22:28:00 10° W 22:32:50 25° NNW 22:37:37 10° NNE night (unlit)
28 Jan - 00:13:47 10° NW 00:17:02 15° N 00:20:13 10° NNE visible
28 Jan - 01:57:21 10° NNW 02:01:27 19° NNE 02:05:21 10° ENE visible
28 Jan - 03:39:22 10° NNW 03:44:56 50° NE 03:50:03 10° ESE visible
28 Jan - 05:21:53 10° NW 05:26:53 34° WSW 05:31:28 10° S visible
28 Jan - 18:16:12 10° SE 18:18:58 14° ESE 18:21:45 10° ENE night (unlit)
28 Jan - 19:54:15 10° SSW 20:00:05 68° ESE 20:05:58 10° NE night (unlit)
28 Jan - 21:37:17 10° WSW 21:42:40 34° NW 21:48:00 10° NNE night (unlit)
28 Jan - 23:22:53 10° NW 23:26:32 16° NNW 23:30:08 10° NNE night (unlit)
29 Jan - 01:07:30 10° NNW 01:11:01 16° NNE 01:14:25 10° NE visible
29 Jan - 02:49:45 10° NNW 02:54:55 33° NE 02:59:44 10° ESE visible
29 Jan - 04:31:53 10° NW 04:37:26 62° WSW 04:42:30 10° SSE visible
29 Jan - 06:17:36 10° W 06:18:16 10° W 06:18:56 10° WSW daylight
29 Jan - 19:05:08 10° S 19:10:34 40° ESE 19:16:03 10° NE night (unlit)
29 Jan - 20:46:54 10° WSW 20:52:39 51° NW 20:58:24 10° NNE night (unlit)
29 Jan - 22:31:52 10° WNW 22:36:08 20° NNW 22:40:19 10° NNE night (unlit)
30 Jan - 00:17:20 10° NNW 00:20:31 15° N 00:23:38 10° NE visible
30 Jan - 02:00:07 10° NNW 02:04:45 24° NNE 02:09:06 10° E visible
30 Jan - 03:42:07 10° NW 03:47:47 79° NE 03:52:58 10° SE visible
30 Jan - 05:25:18 10° WNW 05:29:12 20° WSW 05:32:52 10° SSW visible
30 Jan - 18:16:43 10° SSE 18:21:14 23° ESE 18:25:47 10° ENE night (unlit)
30 Jan - 19:56:53 10° SW 20:02:48 79° NW 20:08:44 10° NE night (unlit)
30 Jan - 21:40:56 10° W 21:45:49 26° NNW 21:50:40 10° NNE night (unlit)
30 Jan - 23:26:45 10° NW 23:30:00 15° N 23:33:12 10° NNE night (unlit)
31 Jan - 01:10:25 10° NNW 01:14:24 19° NNE 01:18:14 10° ENE visible
31 Jan - 02:52:26 10° NNW 02:57:56 48° NE 03:03:00 10° ESE visible
31 Jan - 04:34:55 10° NW 04:39:56 36° WSW 04:44:33 10° S visible
31 Jan - 17:29:34 10° SE 17:32:04 13° ESE 17:34:34 10° ENE night (unlit)
31 Jan - 19:07:18 10° SSW 19:13:08 65° ESE 19:19:00 10° NE night (unlit)
31 Jan - 20:50:15 10° WSW 20:55:40 35° NW 21:01:03 10° NNE night (unlit)
31 Jan - 22:35:50 10° NW 22:39:31 17° NNW 22:43:08 10° NNE night (unlit)
